START 1 DEB

Satellite information

Favourite Embed

Satellite Type and Status

DEBRISIN ORBIT

Key statistics

Satellite START 1 DEB at a glance.

Uptime

11952

Days in orbit

Revolutions

≈ 14.3

Per day

Orbit

LEO

Low Earth Orbit

Inclination

75.8

Latest

Satellite identification and parameters

Extended collection of information and parameters for START 1 DEB.

Object identification

Identified? True

Debris? True

Object name: START 1 DEB

International designator: 1993-014G

Object number (NORAD): 27752

Object ID (CCSDS): 27752

Country: COMMONWEALTH OF INDEPENDENT STATES (CIS)

Current information (Y/N): Y

RCS size: SMALL

Orbital parameters

Period: 100.785 minutes

Inclination: 75.7598 deg

SMA: 7173.941 km

Apoapsis: 923.956 km

Periapsis: 667.656 km

RAAN: 231.4876 deg

Eccentricy: 0.0178633

Argument of periapsis: 122.8732 deg

Mean anomaly: 238.9762 deg

Mean motion: 14.28782286 rev/day

Mean motion (dot): 0.00000813 rev/day2

B* drag term: 0.00027639539 1/REarth

Two-line elements (TLE)

Creation date: Dec. 8, 2025, 6:20 p.m.

Reference frame: TEME

Reference center: EARTH

Epoch: Dec. 8, 2025, 9:32 a.m. UTC

TLE line 0: 0 START 1 DEB

TLE line 1: 1 27752U 93014G 25342.39761973 .00000813 00000-0 27640-3 0 9995

TLE line 2: 2 27752 75.7598 231.4876 0178633 122.8732 238.9762 14.28782286231641

Live tracking on map

Real-time ground track for satellite START 1 DEB.

In-orbit conjunctions

A list of the most updated potential collisions computed for object START 1 DEB.

Target Orbit TCA Probability of collision Miss distance Type
IRIDIUM 33 DEB LEO 2025-06-30 18:39:51 0.0001097749 187.0 (m) DEBRIS
CZ-6A DEB LEO 2024-10-31 09:55:15 0.0002945705 354.0 (m) DEBRIS

Associated space launch

EKA 1 and 2 were vehicle evaluation payloads on the maiden flights of the Start-1 and Start launch vehicles.

START 1 DEB was lifted into orbit during the mission ‘Start-1 | EKA-1’, on board a Start-1 space rocket.

The launch took place on March 25, 1993, 1:15 p.m. from 158.

For more information about the launch, click the button.

Launch to space Start-1 | EKA-1
Start-1 | EKA-1

Agency: N/A

Status: Launch Successful

Launch date: March 25, 1993, 1:15 p.m. UTC

Rocket: Start-1

Launch pad: 158

Location: Plesetsk Cosmodrome, Russian Federation

...

Latest news about this satellite

There are no fresh news available about this satellite. Check back as we update our databases every day.


Newsletter sign-up

Weekly statistics, charts and insights to help you stay on top of the space industry.